Location: Starlight Observatory
(38.4029°N, 85.8936°W)
Time: 04:02:23
(UTC-04:00)

Amateur Radio Satellites - All Passes

Search period start: 25 August 2016 03:32
Search period end: 26 August 2016 03:32
Location: Starlight Observatory, 38.4029°N, 85.8936°W

Satellite Date Start Highest point End Downlink Frequencies (MHz)
Time Altitude Azimuth
MOZHAYETS 4 25 Aug 03:47:02 03:50:21 20° 67° (ENE) 03:53:41
Gurwin Techsat 1B 25 Aug 03:47:13 03:52:33 76° 102° (ESE) 03:57:52 435.225
ITUPSAT 1 25 Aug 03:49:34 03:54:12 51° 260° (W) 03:58:51 437.325
JAS-2 25 Aug 04:00:54 04:04:14 14° 300° (WNW) 04:07:43 435.910
KKS-1 25 Aug 04:03:45 04:07:21 24° 68° (ENE) 04:10:58 437.445
PHONESAT 2.4 25 Aug 04:04:36 04:07:25 38° 156° (SSE) 04:10:15 2401.200-2431.200
ITAMSAT 1 25 Aug 04:09:46 04:14:31 36° 98° (E) 04:19:14 435.822/435.867
AO-7 25 Aug 04:12:08 04:18:18 22° 94° (E) 04:24:24 29.400- 29.500
SWISSCUBE 25 Aug 04:25:53 04:29:18 20° 266° (W) 04:32:45 437.505
Oscar 19 25 Aug 04:43:11 04:46:13 16° 298° (WNW) 04:49:16 437.125/150
BEESAT 25 Aug 04:44:24 04:46:56 14° 268° (W) 04:49:29 436.000
STARS 25 Aug 04:47:44 04:51:45 35° 71° (ENE) 04:55:47 437.465
Cosmos 2491 25 Aug 04:58:24 05:03:13 15° 62° (ENE) 05:08:00 435.465 / 435.565
CUBESAT XI-V 25 Aug 04:59:28 05:02:02 15° 64° (ENE) 05:04:34 437.345
MOZHAYETS 4 25 Aug 05:23:03 05:27:16 36° 262° (W) 05:31:29
Gurwin Techsat 1B 25 Aug 05:29:17 05:31:50 14° 299° (WNW) 05:34:21 435.225
RS-15 25 Aug 05:34:26 05:44:23 30° 327° (NNW) 05:54:45 29.354- 29.394
KKS-1 25 Aug 05:39:52 05:43:46 29° 263° (W) 05:47:41 437.445
PHONESAT 2.4 25 Aug 05:40:44 05:43:43 63° 350° (N) 05:46:42 2401.200-2431.200
ITAMSAT 1 25 Aug 05:49:34 05:53:47 26° 294° (WNW) 05:58:00 435.822/435.867
AO-85 25 Aug 06:00:02 06:03:51 20° 110° (ESE) 06:07:32 145.980
AO-7 25 Aug 06:03:25 06:11:42 73° 290° (WNW) 06:19:55 29.400- 29.500
BRITE-PL 25 Aug 06:03:38 06:06:07 13° 88° (E) 06:08:34 437.365/2234.400
YUBILEINY 25 Aug 06:12:42 06:18:25 19° 79° (E) 06:24:07 435.215
STARS 25 Aug 06:24:57 06:28:10 20° 266° (W) 06:31:24 437.465
CUBESAT XI-V 25 Aug 06:34:27 06:38:56 53° 261° (W) 06:43:27 437.345
NOAA 15 25 Aug 06:40:19 06:43:17 15° 92° (E) 06:46:13 137.62
STRAND 1 25 Aug 06:44:40 06:46:25 12° 60° (ENE) 06:48:12 437.568
NOAA 18 25 Aug 06:45:18 06:46:22 11° 90° (E) 06:47:25 137.9125
Cosmos 2491 25 Aug 06:52:38 07:01:30 81° 82° (E) 07:10:21 435.465 / 435.565
HORYU 2 25 Aug 06:54:06 06:58:33 90° 114° (ESE) 07:02:57 437.375
LilacSat-2 25 Aug 07:14:47 07:17:40 21° 95° (E) 07:20:32 437.200
PHONESAT 2.4 25 Aug 07:17:16 07:20:14 62° 7° (N) 07:23:13 2401.200-2431.200
GOMX 1 25 Aug 07:31:14 07:36:20 40° 96° (E) 07:41:12 467.674
AO-85 25 Aug 07:38:47 07:44:00 53° 304° (NW) 07:48:57 145.980
BRITE-PL 25 Aug 07:39:25 07:45:09 81° 284° (WNW) 07:50:46 437.365/2234.400
DOVE 4 25 Aug 07:53:24 07:57:45 28° 94° (E) 08:01:53 437.250
Cubesat XI-IV 25 Aug 07:54:16 07:59:32 61° 101° (ESE) 08:04:47 437.490
RS-15 25 Aug 07:54:59 08:02:46 18° 2° (N) 08:10:38 29.354- 29.394
AO-7 25 Aug 07:58:37 08:03:02 16° 310° (NW) 08:07:27 29.400- 29.500
YUBILEINY 25 Aug 08:05:14 08:14:04 81° 277° (W) 08:22:58 435.215
CUTE-I 25 Aug 08:07:04 08:12:24 81° 103° (ESE) 08:17:43 437.470
Cosmos 2504 25 Aug 08:15:25 08:23:26 46° 89° (E) 08:30:58 435.465 / 435.565
NOAA 15 25 Aug 08:18:11 08:23:26 62° 287° (WNW) 08:28:40 137.62
STRAND 1 25 Aug 08:19:46 08:24:52 82° 256° (WSW) 08:30:01 437.568
NOAA 18 25 Aug 08:22:09 08:27:40 86° 284° (WNW) 08:33:07 137.9125
LilacSat-2 25 Aug 08:48:53 08:51:54 23° 290° (WNW) 08:54:54 437.200
Cosmos 2491 25 Aug 08:51:33 08:57:12 19° 281° (W) 09:02:53 435.465 / 435.565
CANX-2 25 Aug 08:53:43 08:57:12 25° 95° (E) 09:00:42 2200.000
PHONESAT 2.4 25 Aug 08:53:43 08:56:34 40° 204° (SSW) 08:59:24 2401.200-2431.200
SO-50 25 Aug 08:55:01 08:57:25 14° 41° (NE) 08:59:46 436.795
CINEMA 3 25 Aug 08:55:37 08:59:40 31° 96° (E) 09:03:32 145.822/145.860
CUTE 1.7 + AOD 2 25 Aug 09:00:23 09:03:55 25° 96° (E) 09:07:27 437.475
GOMX 1 25 Aug 09:09:43 09:14:07 26° 293° (WNW) 09:18:22 467.674
PRISM 25 Aug 09:10:43 09:14:26 35° 71° (ENE) 09:18:10 437.425
HO-68 25 Aug 09:15:58 09:22:49 46° 100° (E) 09:29:36 435.675
AAUSAT CUBESAT 2 25 Aug 09:18:42 09:21:08 15° 92° (E) 09:23:33 437.432
BRITE-PL 25 Aug 09:20:54 09:22:39 11° 300° (WNW) 09:24:24 437.365/2234.400
COMPASS 1 25 Aug 09:23:07 09:26:23 22° 95° (E) 09:29:39 437.405
ISS 25 Aug 09:28:01 09:29:38 13° 128° (SE) 09:31:16 145.825
DOVE 4 25 Aug 09:30:56 09:35:23 31° 291° (WNW) 09:39:37 437.250
CUBEBUG 2 25 Aug 09:33:30 09:36:43 21° 94° (E) 09:39:51 437.445
Cubesat XI-IV 25 Aug 09:35:47 09:39:05 17° 297° (WNW) 09:42:23 437.490
UWE-3 25 Aug 09:37:56 09:40:19 15° 92° (E) 09:42:40 435.000/436.395/437.385
CUTE-I 25 Aug 09:49:29 09:51:43 13° 300° (WNW) 09:53:58 437.470
ZACube-1 25 Aug 09:58:50 10:01:26 16° 93° (E) 10:04:02 437.345
NOAA 18 25 Aug 10:05:50 10:07:26 11° 302° (WNW) 10:09:04 137.9125
YUBILEINY 25 Aug 10:07:35 10:12:20 15° 298° (WNW) 10:17:08 435.215
Cosmos 2504 25 Aug 10:09:12 10:16:51 36° 286° (WNW) 10:24:07 435.465 / 435.565
RS-15 25 Aug 10:10:01 10:20:52 34° 37° (NE) 10:31:35 29.354- 29.394
SEEDS 25 Aug 10:13:16 10:17:25 62° 285° (WNW) 10:21:35 437.485
TIGRISAT 25 Aug 10:16:41 10:19:58 19° 67° (ENE) 10:23:12 435.000
CANX-2 25 Aug 10:29:30 10:32:58 25° 290° (WNW) 10:36:25 2200.000
CINEMA 3 25 Aug 10:33:04 10:36:36 22° 293° (WNW) 10:40:00 145.822/145.860
SO-50 25 Aug 10:33:53 10:38:30 80° 240° (WSW) 10:42:57 436.795
CUTE 1.7 + AOD 2 25 Aug 10:36:14 10:39:39 24° 291° (WNW) 10:43:03 437.475
UNISAT 6 25 Aug 10:43:10 10:47:27 39° 72° (ENE) 10:51:42 437.425
PRISM 25 Aug 10:47:13 10:49:50 16° 266° (W) 10:52:27 437.425
AIST 1 25 Aug 10:51:09 10:55:28 78° 277° (W) 10:59:52
AAUSAT CUBESAT 2 25 Aug 10:52:52 10:56:45 39° 287° (WNW) 11:00:38 437.432
COMPASS 1 25 Aug 10:58:22 11:01:54 27° 290° (WNW) 11:05:27 437.405
ISS 25 Aug 11:02:31 11:05:45 57° 323° (NW) 11:09:00 145.825
HO-68 25 Aug 11:04:04 11:10:17 33° 297° (WNW) 11:16:27 435.675
BEESAT 2 25 Aug 11:04:59 11:08:09 24° 112° (ESE) 11:11:22 435.950
HUMSAT D 25 Aug 11:09:31 11:12:33 20° 95° (E) 11:15:35 437.325/437.525
CUBEBUG 2 25 Aug 11:09:41 11:13:21 29° 290° (WNW) 11:16:57 437.445
Oscar 11 25 Aug 11:10:11 11:14:29 70° 285° (WNW) 11:18:46 145.826/435.025
UWE-3 25 Aug 11:13:02 11:16:58 39° 288° (WNW) 11:20:49 435.000/436.395/437.385
FUNcube-1 25 Aug 11:13:53 11:18:01 67° 284° (WNW) 11:22:05 145.935
ANTELSAT 25 Aug 11:19:51 11:24:30 84° 257° (WSW) 11:29:05 437.575/2403.000
DELFI C3 25 Aug 11:20:14 11:24:12 62° 101° (E) 11:28:10 145.870
CUSAT 1 25 Aug 11:26:29 11:32:37 56° 79° (E) 11:40:02 437.405
BEESAT 3 25 Aug 11:27:59 11:31:53 87° 305° (NW) 11:35:50 437.485
ZACube-1 25 Aug 11:34:02 11:37:51 36° 288° (WNW) 11:41:38 437.345
M-CUBED/EXP-1 PRIME 25 Aug 11:48:53 11:50:44 13° 95° (E) 11:52:32 437.505
QB50P1 25 Aug 11:51:20 11:55:02 29° 70° (ENE) 11:58:44 145.935-145.965
TIGRISAT 25 Aug 11:52:00 11:56:22 39° 262° (W) 12:00:39 435.000
DANDE 25 Aug 11:57:03 12:01:54 37° 78° (ENE) 12:08:04 436.750
POPSAT HIP 1 25 Aug 12:00:48 12:04:44 36° 72° (ENE) 12:08:41 437.405
BUGSAT 1 25 Aug 12:04:39 12:07:12 16° 66° (ENE) 12:09:46 437.445
UNISAT 6 25 Aug 12:20:59 12:24:15 19° 266° (W) 12:27:31 437.425
GONETS M04 25 Aug 12:21:29 12:28:52 32° 84° (E) 12:36:17
CUBEBUG 1 25 Aug 12:22:31 12:24:52 14° 92° (E) 12:27:11 437.445
RS-15 25 Aug 12:22:32 12:34:58 85° 243° (WSW) 12:47:06 29.354- 29.394
JAS-2 25 Aug 12:25:43 12:30:18 33° 68° (ENE) 12:35:04 435.910
QB50P2 25 Aug 12:30:05 12:34:22 89° 74° (ENE) 12:38:40 145.880/145.840
DUCHIFAT 1 25 Aug 12:31:28 12:35:42 76° 75° (ENE) 12:39:58 145.980
POLYITAN 1 25 Aug 12:32:37 12:36:54 90° 352° (N) 12:41:13 437.675
DX 1 25 Aug 12:40:38 12:42:05 11° 91° (E) 12:43:31 434.975-435.025
ESTCUBE 1 25 Aug 12:40:39 12:44:50 35° 98° (E) 12:48:59 437.505/2401.250
ISS 25 Aug 12:41:10 12:42:47 13° 342° (NNW) 12:44:25 145.825
BEESAT 2 25 Aug 12:42:28 12:45:51 27° 308° (NW) 12:49:18 435.950
NANOSAT C BR1 25 Aug 12:43:54 12:48:09 72° 258° (WSW) 12:52:25 145.865
HUMSAT D 25 Aug 12:44:41 12:48:10 28° 289° (WNW) 12:51:40 437.325/437.525
PCSat 25 Aug 12:52:22 12:57:22 40° 111° (ESE) 13:02:24 145.827
SPROUT 25 Aug 12:53:33 12:55:09 12° 91° (E) 12:56:44 437.525
AIST 2 25 Aug 12:54:19 12:56:31 14° 109° (ESE) 12:58:43 435.215
50 SAT 25 Aug 12:57:07 13:00:12 25° 97° (E) 13:03:16 437.505
AISAT 25 Aug 13:00:26 13:04:28 32° 97° (E) 13:08:27 437.250
CUSAT 1 25 Aug 13:09:16 13:14:24 26° 270° (W) 13:20:16 437.405
AUBIESAT-1 25 Aug 13:18:12 13:22:17 62° 290° (WNW) 13:26:01 437.475
Cosmos 2499 25 Aug 13:20:49 13:28:58 60° 92° (E) 13:36:32 435.465 / 435.565
M-CUBED/EXP-1 PRIME 25 Aug 13:21:34 13:25:36 45° 293° (WNW) 13:29:18 437.505
UKube-1 25 Aug 13:24:20 13:28:06 28° 97° (E) 13:31:50 .
QB50P1 25 Aug 13:27:29 13:30:47 22° 265° (W) 13:34:07 145.935-145.965
JUGNU 25 Aug 13:29:49 13:30:52 10° 172° (S) 13:31:55 437.505
Gurwin Techsat 1B 25 Aug 13:30:33 13:32:52 13° 61° (ENE) 13:35:11 435.225
POPSAT HIP 1 25 Aug 13:37:46 13:40:37 17° 267° (W) 13:43:28 437.405
BUGSAT 1 25 Aug 13:38:11 13:42:13 42° 261° (W) 13:46:16 437.445
DANDE 25 Aug 13:39:56 13:44:34 29° 266° (W) 13:50:16 436.750
VELOX 1 25 Aug 13:47:46 13:52:14 78° 285° (WNW) 13:56:41 145.980
CUBEBUG 1 25 Aug 13:57:06 14:01:23 48° 287° (WNW) 14:05:37 437.445
JAS-2 25 Aug 14:11:12 14:15:28 26° 265° (W) 14:19:53 435.910
DX 1 25 Aug 14:14:17 14:18:36 58° 286° (WNW) 14:22:53 434.975-435.025
GONETS M04 25 Aug 14:16:46 14:25:12 52° 283° (WNW) 14:33:47
Oscar 19 25 Aug 14:17:30 14:22:39 78° 74° (ENE) 14:27:50 437.125/150
ESTCUBE 1 25 Aug 14:18:02 14:21:23 21° 293° (WNW) 14:24:43 437.505/2401.250
SPROUT 25 Aug 14:27:12 14:31:23 52° 286° (WNW) 14:35:31 437.525
AIST 2 25 Aug 14:30:37 14:34:34 46° 305° (NW) 14:38:34 435.215
50 SAT 25 Aug 14:31:05 14:33:35 18° 291° (WNW) 14:36:05 437.505
AO-85 25 Aug 14:34:28 14:35:33 11° 39° (NE) 14:36:37 145.980
PCSat 25 Aug 14:36:13 14:40:50 28° 308° (NW) 14:45:31 145.827
AISAT 25 Aug 14:37:18 14:40:43 22° 293° (WNW) 14:44:08 437.250
RS-15 25 Aug 14:37:39 14:45:35 20° 262° (W) 14:53:26 29.354- 29.394
O/OREOS (USA 219) 25 Aug 14:38:04 14:41:38 24° 102° (ESE) 14:45:15 437.305
SWISSCUBE 25 Aug 14:51:08 14:52:20 11° 90° (E) 14:53:32 437.505
TISAT 1 25 Aug 14:55:49 15:00:01 65° 101° (E) 15:04:10 437.305
UKube-1 25 Aug 15:00:32 15:03:59 23° 292° (WNW) 15:07:25 .
Gurwin Techsat 1B 25 Aug 15:06:46 15:12:05 80° 257° (WSW) 15:17:26 435.225
BEESAT 25 Aug 15:07:10 15:09:56 15° 92° (E) 15:12:42 436.000
AO-7 25 Aug 15:09:35 15:16:29 30° 58° (ENE) 15:23:22 29.400- 29.500
Cosmos 2499 25 Aug 15:15:54 15:22:27 26° 289° (WNW) 15:28:39 435.465 / 435.565
JUGNU 25 Aug 15:16:56 15:18:58 12° 183° (S) 15:20:59 437.505
ITAMSAT 1 25 Aug 15:26:09 15:31:06 48° 71° (ENE) 15:36:04 435.822/435.867
ITUPSAT 1 25 Aug 15:51:25 15:55:59 44° 99° (E) 16:00:32 437.325
ISS 25 Aug 15:55:54 15:58:06 16° 23° (NNE) 16:00:17 145.825
Oscar 19 25 Aug 16:01:10 16:02:30 11° 270° (W) 16:03:52 437.125/150
AO-85 25 Aug 16:12:30 16:16:44 90° 19° (NNE) 16:20:40 145.980
O/OREOS (USA 219) 25 Aug 16:16:57 16:20:52 29° 298° (WNW) 16:24:51 437.305
SWISSCUBE 25 Aug 16:25:49 16:30:34 70° 286° (WNW) 16:35:17 437.505
TISAT 1 25 Aug 16:34:17 16:35:05 10° 297° (WNW) 16:35:52 437.305
BEESAT 25 Aug 16:43:23 16:47:59 51° 288° (WNW) 16:52:34 436.000
SRMSAT 25 Aug 16:48:56 16:51:02 12° 178° (S) 16:53:09 437.500
AO-7 25 Aug 17:00:26 17:08:41 62° 256° (WSW) 17:16:58 29.400- 29.500
ITAMSAT 1 25 Aug 17:07:11 17:10:47 19° 266° (W) 17:14:25 435.822/435.867
BRITE-PL 25 Aug 17:14:28 17:15:40 11° 59° (ENE) 17:16:54 437.365/2234.400
MOZHAYETS 4 25 Aug 17:19:00 17:23:30 56° 100° (E) 17:28:00
ITUPSAT 1 25 Aug 17:30:11 17:33:27 19° 295° (WNW) 17:36:43 437.325
KKS-1 25 Aug 17:31:33 17:35:58 58° 101° (E) 17:40:20 437.445
ISS 25 Aug 17:31:38 17:34:55 83° 224° (SW) 17:38:12 145.825
Cubesat XI-IV 25 Aug 17:39:37 17:40:50 11° 59° (ENE) 17:42:03 437.490
HORYU 2 25 Aug 17:50:16 17:54:42 69° 75° (ENE) 17:59:09 437.375
CUTE-I 25 Aug 17:50:35 17:53:20 14° 61° (ENE) 17:56:05 437.470
NOAA 15 25 Aug 17:58:39 18:02:34 22° 65° (ENE) 18:06:31 137.62
Cosmos 2491 25 Aug 17:59:15 18:04:31 18° 78° (ENE) 18:09:46 435.465 / 435.565
NOAA 18 25 Aug 18:08:20 18:12:20 21° 63° (ENE) 18:16:18 137.9125
Cosmos 2504 25 Aug 18:13:20 18:15:17 11° 61° (ENE) 18:17:14 435.465 / 435.565
STARS 25 Aug 18:14:17 18:18:43 84° 103° (ESE) 18:23:05 437.465
YUBILEINY 25 Aug 18:17:37 18:26:02 48° 76° (ENE) 18:34:20 435.215
CUBESAT XI-V 25 Aug 18:32:19 18:36:47 42° 98° (E) 18:41:14 437.345
GOMX 1 25 Aug 18:37:24 18:41:54 35° 69° (ENE) 18:46:39 467.674
SRMSAT 25 Aug 18:38:38 18:39:17 10° 188° (S) 18:39:56 437.500
BRITE-PL 25 Aug 18:48:32 18:53:13 85° 257° (WSW) 18:58:22 437.365/2234.400
DOVE 4 25 Aug 18:56:50 19:01:00 26° 67° (ENE) 19:05:17 437.250
MOZHAYETS 4 25 Aug 18:57:51 19:00:10 14° 296° (WNW) 19:02:29
KKS-1 25 Aug 19:09:58 19:12:00 13° 297° (WNW) 19:14:03 437.445
Cubesat XI-IV 25 Aug 19:14:41 19:20:03 85° 76° (ENE) 19:25:25 437.490
BEESAT 2 25 Aug 19:25:10 19:26:43 12° 44° (NE) 19:28:14 435.950
CUTE-I 25 Aug 19:27:24 19:32:44 73° 258° (WSW) 19:38:05 437.470
LilacSat-2 25 Aug 19:28:19 19:32:07 60° 260° (W) 19:35:56 437.200
NOAA 15 25 Aug 19:37:01 19:42:01 45° 261° (W) 19:47:04 137.62
HO-68 25 Aug 19:43:30 19:49:32 30° 62° (ENE) 19:55:35 435.675
CANX-2 25 Aug 19:46:02 19:48:31 15° 66° (ENE) 19:50:59 2200.000
BEESAT 3 25 Aug 19:46:41 19:50:17 32° 53° (NE) 19:53:52 437.485
NOAA 18 25 Aug 19:47:09 19:52:33 53° 259° (W) 19:57:58 137.9125
Cosmos 2491 25 Aug 19:51:24 20:00:08 85° 277° (W) 20:08:56 435.465 / 435.565
CUTE 1.7 + AOD 2 25 Aug 19:52:34 19:55:05 16° 67° (ENE) 19:57:38 437.475
CINEMA 3 25 Aug 19:55:06 19:59:19 28° 69° (ENE) 20:03:30 145.822/145.860
Cosmos 2504 25 Aug 20:02:44 20:10:01 77° 82° (E) 20:17:11 435.465 / 435.565
CUBESAT XI-V 25 Aug 20:10:33 20:13:50 19° 294° (WNW) 20:17:06 437.345
COMPASS 1 25 Aug 20:13:53 20:15:44 13° 65° (ENE) 20:17:35 437.405
YUBILEINY 25 Aug 20:14:52 20:22:30 35° 275° (W) 20:30:04 435.215
GOMX 1 25 Aug 20:15:51 20:19:59 26° 267° (W) 20:24:21 467.674
CUBEBUG 2 25 Aug 20:30:17 20:33:22 18° 67° (ENE) 20:36:25 437.445
STRAND 1 25 Aug 20:31:58 20:36:43 37° 98° (E) 20:41:26 437.568
DOVE 4 25 Aug 20:33:45 20:38:26 37° 264° (W) 20:43:18 437.250
UWE-3 25 Aug 20:34:16 20:36:09 12° 64° (ENE) 20:38:02 435.000/436.395/437.385
ZACube-1 25 Aug 20:54:09 20:56:03 13° 65° (ENE) 20:57:58 437.345
Cubesat XI-IV 25 Aug 21:00:02 21:00:44 10° 271° (W) 21:01:26 437.490
AIST 1 25 Aug 21:00:19 21:03:46 22° 74° (ENE) 21:07:11
BEESAT 2 25 Aug 21:01:00 21:05:01 74° 241° (WSW) 21:09:00 435.950
SEEDS 25 Aug 21:03:04 21:07:12 72° 76° (ENE) 21:11:21 437.485
CANX-2 25 Aug 21:20:02 21:24:01 41° 262° (W) 21:28:00 2200.000
BEESAT 3 25 Aug 21:24:50 21:27:43 19° 249° (WSW) 21:30:35 437.485
CUTE 1.7 + AOD 2 25 Aug 21:26:38 21:30:35 40° 262° (W) 21:34:34 437.475
HO-68 25 Aug 21:29:57 21:36:53 51° 259° (W) 21:43:53 435.675
CINEMA 3 25 Aug 21:31:49 21:36:16 32° 264° (W) 21:40:46 145.822/145.860
AAUSAT CUBESAT 2 25 Aug 21:40:58 21:45:04 76° 259° (W) 21:49:11 437.432
PCSat 25 Aug 21:41:48 21:46:16 25° 51° (NE) 21:50:42 145.827
COMPASS 1 25 Aug 21:46:51 21:50:50 49° 261° (W) 21:54:51 437.405
Cosmos 2491 25 Aug 21:53:23 21:58:20 16° 298° (WNW) 22:03:21 435.465 / 435.565
Cosmos 2504 25 Aug 21:58:27 22:02:22 16° 280° (W) 22:06:16 435.465 / 435.565
HUMSAT D 25 Aug 22:00:40 22:02:30 13° 65° (ENE) 22:04:21 437.325/437.525
Oscar 11 25 Aug 22:03:01 22:07:17 72° 77° (ENE) 22:11:36 145.826/435.025
DELFI C3 25 Aug 22:04:51 22:08:12 28° 71° (ENE) 22:11:36 145.870
CUBEBUG 2 25 Aug 22:05:05 22:09:37 45° 261° (W) 22:14:05 437.445
FUNcube-1 25 Aug 22:07:09 22:11:38 75° 75° (ENE) 22:16:02 145.935
UWE-3 25 Aug 22:07:30 22:12:05 64° 259° (W) 22:16:35 435.000/436.395/437.385
STRAND 1 25 Aug 22:11:37 22:15:39 24° 294° (WNW) 22:19:41 437.568
ZACube-1 25 Aug 22:27:24 22:31:50 59° 259° (W) 22:36:14 437.345
PRISM 25 Aug 22:28:17 22:32:28 73° 102° (ESE) 22:36:38 437.425
AUBIESAT-1 25 Aug 22:29:52 22:32:07 14° 58° (ENE) 22:34:22 437.475
M-CUBED/EXP-1 PRIME 25 Aug 22:32:34 22:35:39 18° 60° (ENE) 22:38:46 437.505
GONETS M04 25 Aug 22:34:42 22:38:53 14° 60° (ENE) 22:43:03
AIST 1 25 Aug 22:37:34 22:41:19 28° 270° (W) 22:45:04
AIST 2 25 Aug 22:53:02 22:57:12 68° 58° (ENE) 23:01:22 435.215
ANTELSAT 25 Aug 23:13:58 23:17:14 21° 94° (E) 23:20:28 437.575/2403.000
Cosmos 2499 25 Aug 23:15:42 23:19:42 16° 66° (ENE) 23:23:41 435.465 / 435.565
CUBEBUG 1 25 Aug 23:18:54 23:19:43 10° 62° (ENE) 23:20:32 437.445
PCSat 25 Aug 23:24:41 23:29:51 46° 248° (WSW) 23:34:59 145.827
HUMSAT D 25 Aug 23:33:36 23:37:41 50° 260° (W) 23:41:44 437.325/437.525
ESTCUBE 1 25 Aug 23:38:55 23:42:42 28° 69° (ENE) 23:46:30 437.505/2401.250
DELFI C3 25 Aug 23:40:15 23:43:03 19° 266° (W) 23:45:53 145.870
TIGRISAT 25 Aug 23:44:54 23:49:02 45° 99° (E) 23:53:06 435.000
AISAT 25 Aug 23:56:33 00:00:09 24° 68° (ENE) 00:03:45 437.250
AUBIESAT-1 26 Aug 00:01:24 00:05:58 69° 254° (WSW) 00:10:37 437.475
M-CUBED/EXP-1 PRIME 26 Aug 00:05:12 00:09:42 52° 256° (WSW) 00:14:20 437.505
UNISAT 6 26 Aug 00:12:41 00:16:59 78° 285° (WNW) 00:21:14 437.425
QB50P2 26 Aug 00:17:48 00:20:24 16° 93° (E) 00:22:58 145.880/145.840
UKube-1 26 Aug 00:17:49 00:21:03 21° 67° (ENE) 00:24:16 .
DUCHIFAT 1 26 Aug 00:18:53 00:20:51 13° 92° (E) 00:22:48 145.980
POLYITAN 1 26 Aug 00:20:19 00:22:56 16° 93° (E) 00:25:32 437.675
GONETS M04 26 Aug 00:28:27 00:37:21 75° 82° (E) 00:46:11
NANOSAT C BR1 26 Aug 00:30:38 00:33:43 20° 94° (E) 00:36:47 145.865
CUSAT 1 26 Aug 00:30:45 00:33:18 36° 93° (E) 00:36:17 437.405
RS-15 26 Aug 00:38:02 00:43:50 15° 96° (E) 00:49:43 29.354- 29.394
VELOX 1 26 Aug 00:43:10 00:47:34 76° 76° (ENE) 00:52:03 145.980
SO-50 26 Aug 00:46:07 00:50:47 48° 116° (ESE) 00:55:26 436.795
O/OREOS (USA 219) 26 Aug 00:48:36 00:52:52 37° 63° (ENE) 00:57:08 437.305
ANTELSAT 26 Aug 00:50:14 00:53:58 29° 290° (WNW) 00:57:38 437.575/2403.000
CUBEBUG 1 26 Aug 00:51:00 00:55:22 72° 259° (WSW) 00:59:47 437.445
50 SAT 26 Aug 01:05:40 01:09:08 48° 260° (W) 01:12:37 437.505
Cosmos 2499 26 Aug 01:06:35 01:13:40 80° 265° (W) 01:20:48 435.465 / 435.565
DX 1 26 Aug 01:07:50 01:12:11 83° 257° (WSW) 01:16:35 434.975-435.025
DANDE 26 Aug 01:07:51 01:10:00 23° 94° (E) 01:12:10 436.750
QB50P1 26 Aug 01:12:31 01:16:43 66° 101° (ESE) 01:20:53 145.935-145.965
ESTCUBE 1 26 Aug 01:15:45 01:19:26 25° 264° (W) 01:23:09 437.505/2401.250
JAS-2 26 Aug 01:18:33 01:24:59 42° 98° (E) 01:32:00 435.910
SPROUT 26 Aug 01:18:38 01:22:58 87° 264° (W) 01:27:17 437.525
BUGSAT 1 26 Aug 01:21:41 01:25:19 29° 97° (E) 01:28:51 437.445
POPSAT HIP 1 26 Aug 01:22:18 01:26:32 86° 102° (ESE) 01:30:44 437.405
TIGRISAT 26 Aug 01:22:57 01:25:19 15° 295° (WNW) 01:27:40 435.000
AISAT 26 Aug 01:32:38 01:36:28 28° 263° (W) 01:40:20 437.250
TISAT 1 26 Aug 01:45:47 01:49:44 38° 72° (ENE) 01:53:42 437.305
QB50P2 26 Aug 01:52:25 01:56:21 38° 288° (WNW) 02:00:15 145.880/145.840
DUCHIFAT 1 26 Aug 01:52:45 01:56:46 46° 287° (WNW) 02:00:46 145.980
UKube-1 26 Aug 01:53:00 01:56:52 32° 262° (W) 02:00:46 .
POLYITAN 1 26 Aug 01:54:58 01:58:53 38° 288° (WNW) 02:02:44 437.675
SWISSCUBE 26 Aug 01:56:22 01:58:07 12° 62° (ENE) 01:59:53 437.505
NANOSAT C BR1 26 Aug 02:05:46 02:09:29 31° 289° (WNW) 02:13:10 145.865
BEESAT 26 Aug 02:12:30 02:15:22 16° 64° (ENE) 02:18:13 436.000
GONETS M04 26 Aug 02:27:01 02:33:09 21° 280° (W) 02:39:17
SO-50 26 Aug 02:27:41 02:31:29 22° 313° (NW) 02:35:16 436.795
O/OREOS (USA 219) 26 Aug 02:28:41 02:31:59 20° 259° (W) 02:35:17 437.305
Oscar 19 26 Aug 02:30:58 02:35:33 31° 97° (E) 02:40:07 437.125/150
RS-15 26 Aug 02:42:34 02:53:58 75° 116° (ESE) 03:06:01 29.354- 29.394
QB50P1 26 Aug 02:51:20 02:51:54 10° 297° (WNW) 02:52:28 145.935-145.965
ITUPSAT 1 26 Aug 02:56:37 03:01:06 43° 71° (ENE) 03:05:36 437.325
BUGSAT 1 26 Aug 02:57:24 03:00:29 21° 292° (WNW) 03:03:33 437.445
PHONESAT 2.4 26 Aug 02:57:39 02:59:57 20° 150° (SSE) 03:02:16 2401.200-2431.200
JAS-2 26 Aug 03:03:50 03:09:51 36° 292° (WNW) 03:16:27 435.910
Cosmos 2499 26 Aug 03:04:54 03:05:29 10° 283° (WNW) 03:06:05 435.465 / 435.565
TISAT 1 26 Aug 03:22:51 03:25:31 16° 267° (W) 03:28:12 437.305
